sat.trackr.live / text

‹ back to catalog

SAUDISAT 5B

NORAD 43833 · 2018-102C

PAYLOAD ACTIVE UNKNOWN

§ Identity

Operator
Country
SAUD
Launch date
2018-12-07
Launch site
JSC
Launch vehicle
Mass (kg)
RCS (m²)

Purposes: earth_obs

External: N2YO · Heavens-Above · Gunter

§ Orbital elements

Epoch: 2026-09-20T05:26:40.532928Z

Period
94.17 min
Inclination
97.3079°
Eccentricity
0.0010942
Mean motion
15.29082212 rev/d
Perigee alt
471.1 km
Apogee alt
486.1 km
Semi-major
6,856.7 km
B*
1.2532e-4
RAAN
326.2184°
Arg perigee
151.0100°
Mean anomaly
209.1750°
Rev number
43,031

§ Raw data

SAUDISAT 5B1 43833U 18102C   26263.22685802  .00003469  00000+0  12532-3 0  99922 43833  97.3079 326.2184 0010942 151.0100 209.1750 15.29082212430315

JSON: /api/v1/satellites/43833 · /tle

For live sub-satellite position, see the globe view (requires WebGL).

§ Visibility from observer

Set your observer location to see the next 7 days of passes ≥ 10°. The values pass through the URL so the page stays shareable.

No JS? Fill the form by hand. The geolocation button needs JavaScript.

§ Radio — SatNOGS DB

ModeDescriptionDownlinkUplink
FM 401.35 401.350 MHz
FM 401.85 401.850 MHz

2 transmitters · refreshed weekly from db.satnogs.org